Tracking 30306 objects as of 24-Apr-2025
HD Live streaming from Space Station
objects crossing your sky now

THORAD DELTA 1 DEB

Track THORAD DELTA 1 DEB now!
10-day predictions


NORAD ID: 8311
Int'l Code: 1974-089BU
Perigee: 1,461.3 km
Apogee: 1,519.5 km
Inclination: 102.1 °
Period: 115.6 minutes
Semi major axis: 7861 km
RCS: 2.7637 m2 (large)
Launch date: November 15, 1974
Source: United States (US)
Launch site: AIR FORCE WESTERN TEST RANGE (AFWTR)

Note: This is SATELLITE DEBRIS
Your satellite tracking list
Your tracking list is empty




NASA's NSSDC Master Catalog

Two Line Element Set (TLE):
1 08311U 74089BU  25112.86747021 -.00000003  00000-0  29491-3 0  9999
2 08311 102.1022  79.5365 0036994  74.3724 313.1824 12.45532557292909
Source of the keplerian elements: AFSPC